#timestamp,LO_Frequency,Hit,StdDev 
1551783615.4,286046993.0,N
1551783635.3,286046990.9,N
1551783655.1,286046991.5,N
1551783656.0,286046991.5,N
1551783675.8,286046989.4,N
1551783695.7,286046991.1,N
1551783715.5,286046989.1,N
1551783735.4,286046990.9,N
1551783755.2,286046993.1,N
1551783775.0,286046994.5,N
1551783775.9,286046994.5,N
1551783795.8,286046995.1,N
1551783815.6,286046999.2,N
1551783835.4,286046998.6,N
1551783855.3,286047001.9,N
1551783875.1,286047003.7,N
1551783895.9,286047003.8,N
1551783915.7,286047003.2,N
1551783935.5,286047003.4,N
1551783955.4,286047005.9,N
1551783975.2,286047003.8,N
1551783995.0,286047002.4,N
1551783995.9,286047002.4,N
1551784015.8,286047000.5,N
1551784035.6,286046998.4,N
1551784055.5,286046998.3,N
1551784075.3,286047000.6,N
1551784095.1,286047002.0,N
1551784115.9,286047002.1,N
1551784135.7,286047001.6,N
1551784155.6,286047004.2,N
1551784175.4,286047004.0,N
1551784195.2,286047004.2,N
1551784215.1,286047003.6,N
1551784216.0,286047003.6,N
1551784235.8,286047004.0,N
1551784255.6,286047004.2,N
1551784275.5,286047005.4,N
1551784295.3,286047005.8,N
1551784315.2,286047004.8,N
1551784335.9,286047007.2,N
1551784355.7,286047008.4,Y
1551784375.6,286047008.9,P
1551784395.4,286047009.2,N
1551784415.2,286047008.1,N
1551784435.1,286047008.6,Y
1551784436.0,286047008.6,P
1551784455.8,286046999.9,N
1551784475.7,286047000.7,N
1551784495.5,286047000.4,N
1551784515.3,286046999.2,N
1551784535.2,286046997.7,N
1551784555.0,286046999.2,N
1551784555.9,286046999.2,N
1551784575.8,286046993.7,N
1551784595.6,286046992.4,N
1551784615.4,286046991.0,N
1551784635.3,286046993.1,N
1551784655.1,286046990.2,N
1551784675.8,286046988.5,N
1551784695.7,286046989.4,N
1551784715.5,286046988.7,N
1551784735.4,286046991.5,N
1551784755.2,286046992.7,N
1551784775.0,286046992.3,N
1551784775.9,286046992.3,N
1551784795.8,286046996.2,N
1551784815.6,286046995.9,N
1551784835.4,286046996.2,N
1551784855.3,286046997.5,N
1551784875.1,286046996.9,N
1551784895.9,286046997.7,N
1551784915.7,286046995.0,N
1551784935.5,286046996.7,N
1551784955.4,286046999.6,N
1551784975.2,286046998.4,N
1551784995.0,286046999.3,N
1551784996.0,286046999.3,N
1551785015.8,286046998.9,N
1551785035.6,286046997.1,N
1551785055.5,286046997.1,N
1551785075.3,286046997.9,N
1551785095.1,286046996.6,N
1551785115.9,286046998.3,N
1551785135.7,286047001.1,N
1551785155.6,286046998.3,N
1551785175.4,286046998.3,N
1551785195.2,286047001.0,N
1551785215.1,286047001.2,N
1551785216.0,286047001.2,N
1551785235.8,286047001.2,N
1551785255.6,286047000.0,N
1551785275.5,286047000.7,N
1551785295.3,286047000.6,N
1551785315.2,286047001.0,N
1551785335.9,286046998.4,N
1551785355.7,286046999.4,N
1551785375.6,286046998.7,N
1551785395.4,286047001.1,N
1551785415.2,286046998.5,N
1551785435.1,286047000.7,N
1551785436.0,286047000.7,N
1551785455.8,286047001.1,N
1551785475.7,286046998.5,N
1551785495.5,286046998.7,N
1551785515.3,286047000.0,N
1551785535.2,286046999.8,N
1551785555.0,286046999.8,N
1551785555.9,286046999.8,N
1551785575.8,286047002.1,N
1551785595.6,286046999.8,N
1551785615.4,286046999.8,N
1551785635.3,286047004.4,Y
1551785655.1,286047003.7,P
1551785675.8,286047003.0,N
1551785695.7,286047003.4,N
1551785715.5,286047003.8,N
1551785735.4,286047004.3,N
1551785755.2,286047004.0,N
1551785775.0,286047001.6,N
1551785775.9,286047001.6,N
1551785795.8,286047002.7,N
1551785815.6,286047003.9,N
1551785835.4,286047000.6,N
1551785855.3,286046999.0,N
1551785875.1,286046996.8,N
1551785895.9,286046993.3,Y
1551785915.7,286046990.6,P
1551785935.5,286046988.5,N
1551785955.4,286046989.6,N
1551785975.2,286046988.9,N
1551785995.1,286046989.3,N
1551785996.0,286046989.3,N
1551786015.8,286046987.1,N
1551786035.6,286046986.4,Y
1551786055.5,286046991.7,P
1551786075.3,286046994.2,P
1551786095.1,286046995.9,N
1551786115.9,286046997.7,N
1551786135.7,286047000.8,N
1551786155.6,286047002.7,N
1551786175.4,286047000.0,N
1551786195.2,286047000.5,N
1551786215.1,286046999.9,N
1551786216.0,286046999.9,N
1551786235.8,286047002.2,N
1551786255.7,286047000.2,N
1551786275.5,286047001.6,N
1551786295.3,286047002.5,N
1551786315.2,286047003.4,N
1551786335.9,286047007.0,N
1551786355.7,286047006.7,N
1551786375.6,286047004.9,N
1551786395.4,286047003.4,N
1551786415.3,286047004.3,N
1551786435.1,286047002.2,N
1551786436.0,286047002.2,N
1551786455.8,286047003.7,N
1551786475.7,286047003.7,N
1551786495.5,286047003.7,N
1551786515.3,286047003.9,N
1551786535.2,286047004.4,N
1551786555.0,286047002.6,N
1551786555.9,286047002.6,N
1551786575.8,286046998.2,N
1551786595.6,286046997.0,N
1551786615.4,286046994.9,N
1551786635.3,286046993.8,N
1551786655.1,286046992.4,N
1551786675.8,286046990.4,N
1551786695.7,286046988.5,N
1551786715.5,286046987.3,N
1551786735.4,286046985.3,N
1551786755.2,286046985.7,N
1551786775.0,286046988.2,N
1551786775.9,286046988.2,N
1551786795.8,286046986.9,N
1551786815.6,286046988.7,N
1551786835.5,286046991.5,N
1551786855.3,286046991.1,N
1551786875.1,286046989.1,N
1551786895.9,286046988.7,N
1551786915.7,286046992.9,N
1551786935.5,286046992.9,N
1551786955.4,286046990.2,N
1551786975.2,286046987.2,N
1551786995.1,286046987.8,N
1551786996.0,286046987.8,N
1551787015.8,286046987.8,N
1551787035.6,286046985.6,N
1551787055.5,286046989.7,N
1551787075.3,286046987.7,N
1551787095.1,286046988.4,N
1551787115.9,286046983.7,Y
1551787135.7,286046993.6,P
1551787155.6,286046991.8,P
1551787175.4,286046991.8,P
1551787195.2,286046993.8,Y
